Preview of NWS' New Version of Forecast
This preview is not operational and should not be used for support decisions.

Regional Weather Roundup (RWR)

Issued by National Weather Service (NWS)

                            
000
ASUS44 KMEG 201300
RWRTN 
TENNESSEE HOURLY STATE WEATHER ROUNDUP
NATIONAL WEATHER SERVICE MEMPHIS TN
800 AM CDT TUE AUG 20 2019

TNZ002-004-019-021-049-052-054-088>092-201400-
WEST TENNESSEE
  
CITY           SKY/WX    TMP DP  RH WIND       PRES   REMARKS
MEMPHIS INTL   FAIR      79  76  90 CALM      30.05S                  
NWS MEMPHIS      N/A     79 N/A N/A MISG        N/A                   
JACKSON        FAIR      77  75  93 S3        30.06F                  
DYERSBURG      FAIR      78  76  93 S5        30.07R                  
$$

TNZ008-025-027-028-033-062-065-066-201400-
NORTH MIDDLE TENNESSEE
  
CITY           SKY/WX    TMP DP  RH WIND       PRES   REMARKS
NASHVILLE      FAIR      79  70  74 S9        30.08F                  
CLARKSVILLE    FAIR      79  74  84 SW5       30.07R                  
SMYRNA         FAIR      77  71  82 S6        30.09F                  
CROSSVILLE     FAIR      73  66  78 CALM      30.17F                  
$$

TNZ061-075-076-078-094-096-097-201400-
SOUTH MIDDLE TENNESSEE
  
CITY           SKY/WX    TMP DP  RH WIND       PRES   REMARKS
$$

TNZ017-018-042-046-047-201400-
NORTHEAST TENNESSEE
  
CITY           SKY/WX    TMP DP  RH WIND       PRES   REMARKS
TRI CITIES     FAIR      72  66  81 E3        30.18F                  
$$

TNZ012-013-036-069-073-074-201400-
CENTRAL EAST TENNESSEE
  
CITY           SKY/WX    TMP DP  RH WIND       PRES   REMARKS
KNOXVILLE      FAIR      76  67  73 E3        30.13F                  
OAK RIDGE      FAIR      77  68  73 S5        30.14F                  
$$

TNZ083-085-099-201400-
SOUTHEAST TENNESSEE
  
CITY           SKY/WX    TMP DP  RH WIND       PRES   REMARKS
CHATTANOOGA    FAIR      75  69  81 S3        30.13F                  
$$

SKY/WX REPORTED AS FAIR MEANS FEW OR NO CLOUDS BELOW
12 THOUSAND FEET.